START_TIME,STEP,MOV.,M35,t_acc.,PL05,t_acc.,PL06,t_acc.,PL07,t_acc.
1979-03-10 21:00:21.430 ,1,0,0.,4.8,3.,4.8,0.,4.8,0.,4.8
1979-03-10 21:00:26.230 ,1,0,0.,4.8,4.,4.8,0.,4.8,0.,4.8
1979-03-10 21:00:31.030 ,1,0,0.,4.8,5.,4.8,0.,4.8,0.,4.8
1979-03-10 21:00:35.830 ,1,0,0.,4.8,2.,4.8,1.,4.8,0.,4.8
1979-03-10 21:00:40.630 ,1,0,0.,4.8,5.,4.8,0.,4.8,0.,4.8
1979-03-10 21:00:45.430 ,0,0,0.,4.8,2.,4.8,0.,4.8,0.,4.8
1979-03-10 21:00:50.230 ,0,0,0.,4.8,5.,4.8,1.,4.8,0.,4.8
1979-03-10 21:00:55.030 ,0,0,0.,4.8,4.,4.8,0.,4.8,1.,4.8
1979-03-10 21:00:59.830 ,0,0,0.,4.8,4.,4.8,1.,4.8,0.,4.8
1979-03-10 21:01:04.630 ,0,0,0.,4.8,4.,4.8,0.,4.8,2.,4.8
1979-03-10 21:01:09.430 ,0,0,0.,4.8,4.,4.8,1.,4.8,0.,4.8
1979-03-10 21:01:14.230 ,0,0,0.,4.8,4.,4.8,0.,4.8,1.,4.8
1979-03-10 21:01:19.030 ,0,0,0.,4.8,2.,4.8,1.,4.8,0.,4.8
1979-03-10 21:01:23.830 ,0,0,0.,4.8,6.,4.8,0.,4.8,0.,4.8
1979-03-10 21:01:28.630 ,0,0,0.,4.8,3.,4.8,0.,4.8,0.,4.8
1979-03-10 21:01:33.430 ,1,0,0.,4.8,4.,4.8,1.,4.8,0.,4.8
1979-03-10 21:01:38.230 ,1,0,0.,4.8,4.,4.8,0.,4.8,0.,4.8
1979-03-10 21:01:43.030 ,1,0,0.,4.8,6.,4.8,0.,4.8,0.,4.8
1979-03-10 21:01:47.830 ,1,0,0.,4.8,5.,4.8,1.,4.8,0.,4.8
1979-03-10 21:01:52.630 ,1,0,0.,4.8,6.,4.8,1.,4.8,0.,4.8
1979-03-10 21:01:57.430 ,2,0,0.,4.8,6.,4.8,1.,4.8,0.,4.8
1979-03-10 21:02:02.230 ,2,0,0.,4.8,4.,4.8,1.,4.8,0.,4.8
1979-03-10 21:02:07.030 ,2,0,0.,4.8,6.,4.8,0.,4.8,0.,4.8
1979-03-10 21:02:11.830 ,2,0,0.,4.8,3.,4.8,1.,4.8,2.,4.8
1979-03-10 21:02:16.630 ,2,0,0.,4.8,6.,4.8,1.,4.8,0.,4.8
1979-03-10 21:02:21.430 ,3,0,0.,4.8,9.,4.8,1.,4.8,0.,4.8
1979-03-10 21:02:26.230 ,3,0,0.,4.8,8.,4.8,0.,4.8,1.,4.8
1979-03-10 21:02:31.030 ,3,0,0.,4.8,7.,4.8,0.,4.8,0.,4.8
1979-03-10 21:02:35.830 ,3,0,0.,4.8,3.,4.8,1.,4.8,0.,4.8
1979-03-10 21:02:40.630 ,3,0,0.,4.8,9.,4.8,0.,4.8,1.,4.8
1979-03-10 21:02:45.430 ,4,0,0.,4.8,1.,4.8,0.,4.8,0.,4.8
1979-03-10 21:02:50.230 ,4,0,0.,4.8,8.,4.8,0.,4.8,0.,4.8
1979-03-10 21:02:55.030 ,4,0,0.,4.8,9.,4.8,0.,4.8,1.,4.8
1979-03-10 21:02:59.830 ,4,0,0.,4.8,11.,4.8,0.,4.8,0.,4.8
1979-03-10 21:03:04.630 ,4,0,0.,4.8,7.,4.8,1.,4.8,0.,4.8
1979-03-10 21:03:09.430 ,5,0,0.,4.8,11.,4.8,0.,4.8,0.,4.8
1979-03-10 21:03:14.230 ,5,0,0.,4.8,3.,4.8,2.,4.8,0.,4.8
1979-03-10 21:03:19.030 ,5,0,0.,4.8,12.,4.8,0.,4.8,0.,4.8
1979-03-10 21:03:23.830 ,5,0,0.,4.8,3.,4.8,1.,4.8,1.,4.8
1979-03-10 21:03:28.630 ,5,0,0.,4.8,6.,4.8,0.,4.8,0.,4.8
1979-03-10 21:03:33.430 ,6,0,0.,4.8,11.,4.8,0.,4.8,1.,4.8
1979-03-10 21:03:38.230 ,6,0,0.,4.8,4.,4.8,0.,4.8,0.,4.8
1979-03-10 21:03:43.030 ,6,0,0.,4.8,4.,4.8,1.,4.8,0.,4.8
1979-03-10 21:03:47.830 ,6,0,0.,4.8,6.,4.8,1.,4.8,1.,4.8
1979-03-10 21:03:52.630 ,6,0,0.,4.8,4.,4.8,0.,4.8,1.,4.8
1979-03-10 21:03:57.430 ,7,0,0.,4.8,3.,4.8,0.,4.8,1.,4.8
1979-03-10 21:04:02.230 ,7,0,0.,4.8,1.,4.8,0.,4.8,0.,4.8
1979-03-10 21:04:07.030 ,7,0,0.,4.8,2.,4.8,0.,4.8,1.,4.8
1979-03-10 21:04:11.830 ,7,0,0.,4.8,0.,4.8,0.,4.8,0.,4.8
1979-03-10 21:04:16.630 ,7,0,0.,4.8,1.,4.8,0.,4.8,0.,4.8
1979-03-10 21:04:21.430 ,7,0,0.,4.8,2.,4.8,1.,4.8,0.,4.8
1979-03-10 21:04:26.230 ,7,0,0.,4.8,0.,4.8,0.,4.8,0.,4.8
1979-03-10 21:04:31.030 ,7,0,0.,4.8,0.,4.8,0.,4.8,0.,4.8
1979-03-10 21:04:35.830 ,7,0,0.,4.8,1.,4.8,1.,4.8,0.,4.8
1979-03-10 21:04:40.630 ,7,0,0.,4.8,0.,4.8,1.,4.8,0.,4.8
1979-03-10 21:04:45.430 ,6,0,0.,4.8,3.,4.8,0.,4.8,1.,4.8
1979-03-10 21:04:50.230 ,6,0,0.,4.8,0.,4.8,1.,4.8,0.,4.8
1979-03-10 21:04:55.030 ,6,0,0.,4.8,6.,4.8,0.,4.8,0.,4.8
1979-03-10 21:04:59.830 ,6,0,0.,4.8,2.,4.8,2.,4.8,0.,4.8
1979-03-10 21:05:04.630 ,6,0,0.,4.8,4.,4.8,0.,4.8,1.,4.8
1979-03-10 21:05:09.430 ,5,0,0.,4.8,0.,4.8,0.,4.8,0.,4.8
1979-03-10 21:05:14.230 ,5,0,0.,4.8,4.,4.8,1.,4.8,0.,4.8
1979-03-10 21:05:19.030 ,5,0,0.,4.8,9.,4.8,1.,4.8,0.,4.8
1979-03-10 21:05:23.830 ,5,0,0.,4.8,3.,4.8,1.,4.8,1.,4.8
1979-03-10 21:05:28.630 ,5,0,0.,4.8,4.,4.8,0.,4.8,0.,4.8
1979-03-10 21:05:33.430 ,4,0,0.,4.8,6.,4.8,2.,4.8,0.,4.8
1979-03-10 21:05:38.230 ,4,0,0.,4.8,5.,4.8,0.,4.8,2.,4.8
1979-03-10 21:05:43.030 ,4,0,0.,4.8,6.,4.8,1.,4.8,0.,4.8
1979-03-10 21:05:47.830 ,4,0,0.,4.8,8.,4.8,2.,4.8,0.,4.8
1979-03-10 21:05:52.630 ,4,0,0.,4.8,7.,4.8,0.,4.8,0.,4.8
1979-03-10 21:05:57.430 ,3,0,0.,4.8,12.,4.8,1.,4.8,0.,4.8
1979-03-10 21:06:02.230 ,3,0,0.,4.8,2.,4.8,0.,4.8,0.,4.8
1979-03-10 21:06:07.030 ,3,0,0.,4.8,5.,4.8,0.,4.8,0.,4.8
1979-03-10 21:06:11.830 ,3,0,0.,4.8,9.,4.8,1.,4.8,1.,4.8
1979-03-10 21:06:16.630 ,3,0,0.,4.8,9.,4.8,0.,4.8,1.,4.8
1979-03-10 21:06:21.430 ,2,0,0.,4.8,5.,4.8,0.,4.8,0.,4.8
1979-03-10 21:06:26.230 ,2,0,0.,4.8,3.,4.8,1.,4.8,0.,4.8
1979-03-10 21:06:31.030 ,2,0,0.,4.8,4.,4.8,0.,4.8,2.,4.8
1979-03-10 21:06:35.830 ,2,0,0.,4.8,5.,4.8,1.,4.8,0.,4.8
1979-03-10 21:06:40.630 ,2,0,0.,4.8,3.,4.8,0.,4.8,0.,4.8
1979-03-10 21:06:45.430 ,1,0,0.,4.8,9.,4.8,0.,4.8,0.,4.8
1979-03-10 21:06:50.230 ,1,0,0.,4.8,5.,4.8,0.,4.8,0.,4.8
1979-03-10 21:06:55.030 ,1,0,0.,4.8,8.,4.8,1.,4.8,0.,4.8
1979-03-10 21:06:59.830 ,1,0,0.,4.8,3.,4.8,0.,4.8,0.,4.8
1979-03-10 21:07:04.630 ,1,0,0.,4.8,6.,4.8,0.,4.8,0.,4.8
1979-03-10 21:07:09.430 ,0,0,0.,4.8,2.,4.8,0.,4.8,0.,4.8
1979-03-10 21:07:14.230 ,0,0,0.,4.8,4.,4.8,1.,4.8,0.,4.8
1979-03-10 21:07:19.030 ,0,0,0.,4.8,1.,4.8,0.,4.8,0.,4.8
1979-03-10 21:07:23.830 ,0,0,0.,4.8,4.,4.8,0.,4.8,0.,4.8
1979-03-10 21:07:28.630 ,0,0,0.,4.8,2.,4.8,1.,4.8,0.,4.8
1979-03-10 21:07:33.430 ,0,0,0.,4.8,0.,4.8,1.,4.8,0.,4.8
1979-03-10 21:07:38.230 ,0,0,0.,4.8,1.,4.8,0.,4.8,0.,4.8
1979-03-10 21:07:43.030 ,0,0,0.,4.8,2.,4.8,0.,4.8,0.,4.8
1979-03-10 21:07:47.830 ,0,0,0.,4.8,6.,4.8,2.,4.8,2.,4.8
1979-03-10 21:07:52.630 ,0,0,0.,4.8,4.,4.8,1.,4.8,1.,4.8
1979-03-10 21:07:57.430 ,1,0,0.,4.8,2.,4.8,0.,4.8,1.,4.8
1979-03-10 21:08:02.230 ,1,0,0.,4.8,4.,4.8,0.,4.8,0.,4.8
1979-03-10 21:08:07.030 ,1,0,0.,4.8,3.,4.8,1.,4.8,0.,4.8
1979-03-10 21:08:11.830 ,1,0,0.,4.8,4.,4.8,1.,4.8,0.,4.8
1979-03-10 21:08:16.630 ,1,0,0.,4.8,4.,4.8,1.,4.8,0.,4.8
1979-03-10 21:08:21.430 ,2,0,0.,4.8,4.,4.8,0.,4.8,0.,4.8
1979-03-10 21:08:26.230 ,2,0,0.,4.8,2.,4.8,0.,4.8,0.,4.8
1979-03-10 21:08:31.030 ,2,0,0.,4.8,7.,4.8,1.,4.8,1.,4.8
1979-03-10 21:08:35.830 ,2,0,0.,4.8,4.,4.8,1.,4.8,2.,4.8
1979-03-10 21:08:40.630 ,2,0,0.,4.8,5.,4.8,0.,4.8,0.,4.8
1979-03-10 21:08:45.430 ,3,0,0.,4.8,5.,4.8,0.,4.8,1.,4.8
1979-03-10 21:08:50.230 ,3,0,0.,4.8,8.,4.8,0.,4.8,0.,4.8
1979-03-10 21:08:55.030 ,3,0,0.,4.8,9.,4.8,2.,4.8,0.,4.8
1979-03-10 21:08:59.830 ,3,0,0.,4.8,10.,4.8,0.,4.8,0.,4.8
1979-03-10 21:09:04.630 ,3,0,0.,4.8,2.,4.8,0.,4.8,0.,4.8
1979-03-10 21:09:09.430 ,4,0,0.,4.8,9.,4.8,0.,4.8,0.,4.8
1979-03-10 21:09:14.230 ,4,0,0.,4.8,10.,4.8,0.,4.8,0.,4.8
1979-03-10 21:09:19.030 ,4,0,0.,4.8,11.,4.8,0.,4.8,1.,4.8
1979-03-10 21:09:23.830 ,4,0,0.,4.8,7.,4.8,1.,4.8,0.,4.8
1979-03-10 21:09:28.630 ,4,0,0.,4.8,6.,4.8,0.,4.8,0.,4.8
1979-03-10 21:09:33.430 ,5,0,0.,4.8,3.,4.8,1.,4.8,0.,4.8
1979-03-10 21:09:38.230 ,5,0,0.,4.8,8.,4.8,0.,4.8,0.,4.8
1979-03-10 21:09:43.030 ,5,0,0.,4.8,6.,4.8,0.,4.8,0.,4.8
1979-03-10 21:09:47.830 ,5,0,0.,4.8,6.,4.8,0.,4.8,0.,4.8
1979-03-10 21:09:52.630 ,5,0,0.,4.8,7.,4.8,1.,4.8,0.,4.8
1979-03-10 21:09:57.430 ,6,0,0.,4.8,5.,4.8,1.,4.8,0.,4.8
1979-03-10 21:10:02.230 ,6,0,0.,4.8,8.,4.8,1.,4.8,0.,4.8
1979-03-10 21:10:07.030 ,6,0,0.,4.8,9.,4.8,1.,4.8,1.,4.8
1979-03-10 21:10:11.830 ,6,0,0.,4.8,6.,4.8,1.,4.8,0.,4.8
1979-03-10 21:10:16.630 ,6,0,0.,4.8,5.,4.8,0.,4.8,1.,4.8
1979-03-10 21:10:21.430 ,7,0,0.,4.8,6.,4.8,1.,4.8,0.,4.8
1979-03-10 21:10:26.230 ,7,0,0.,4.8,5.,4.8,0.,4.8,0.,4.8
1979-03-10 21:10:31.030 ,7,0,0.,4.8,1.,4.8,1.,4.8,0.,4.8
1979-03-10 21:10:35.830 ,7,0,0.,4.8,1.,4.8,0.,4.8,0.,4.8
1979-03-10 21:10:40.630 ,7,0,0.,4.8,0.,4.8,0.,4.8,0.,4.8
1979-03-10 21:10:45.430 ,7,0,0.,4.8,2.,4.8,1.,4.8,0.,4.8
1979-03-10 21:10:50.230 ,7,0,0.,4.8,0.,4.8,0.,4.8,0.,4.8
1979-03-10 21:10:55.030 ,7,0,0.,4.8,1.,4.8,0.,4.8,1.,4.8
1979-03-10 21:10:59.830 ,7,0,0.,4.8,1.,4.8,0.,4.8,0.,4.8
1979-03-10 21:11:04.630 ,7,0,0.,4.8,0.,4.8,0.,4.8,0.,4.8
1979-03-10 21:11:09.430 ,6,0,0.,4.8,0.,4.8,0.,4.8,0.,4.8
1979-03-10 21:11:14.230 ,6,0,0.,4.8,0.,4.8,0.,4.8,0.,4.8
1979-03-10 21:11:19.030 ,6,0,0.,4.8,3.,4.8,0.,4.8,0.,4.8
1979-03-10 21:11:23.830 ,6,0,0.,4.8,2.,4.8,2.,4.8,0.,4.8
1979-03-10 21:11:28.630 ,6,0,0.,4.8,4.,4.8,1.,4.8,0.,4.8
1979-03-10 21:11:33.430 ,5,0,0.,4.8,4.,4.8,2.,4.8,0.,4.8
1979-03-10 21:11:38.230 ,5,0,0.,4.8,2.,4.8,0.,4.8,0.,4.8
1979-03-10 21:11:43.030 ,5,0,0.,4.8,6.,4.8,0.,4.8,0.,4.8
1979-03-10 21:11:47.830 ,5,0,0.,4.8,3.,4.8,1.,4.8,0.,4.8
1979-03-10 21:11:52.630 ,5,0,0.,4.8,4.,4.8,1.,4.8,0.,4.8
1979-03-10 21:11:57.430 ,4,0,0.,4.8,5.,4.8,3.,4.8,1.,4.8
1979-03-10 21:12:02.230 ,4,0,0.,4.8,5.,4.8,0.,4.8,1.,4.8
1979-03-10 21:12:07.030 ,4,0,0.,4.8,3.,4.8,0.,4.8,0.,4.8
1979-03-10 21:12:11.830 ,4,0,0.,4.8,2.,4.8,0.,4.8,0.,4.8
1979-03-10 21:12:16.630 ,4,0,0.,4.8,7.,4.8,0.,4.8,0.,4.8
1979-03-10 21:12:21.430 ,3,0,0.,4.8,6.,4.8,0.,4.8,0.,4.8
1979-03-10 21:12:26.230 ,3,0,0.,4.8,2.,4.8,2.,4.8,0.,4.8
1979-03-10 21:12:31.030 ,3,0,0.,4.8,4.,4.8,1.,4.8,0.,4.8
1979-03-10 21:12:35.830 ,3,0,0.,4.8,4.,4.8,0.,4.8,0.,4.8
1979-03-10 21:12:40.630 ,3,0,0.,4.8,2.,4.8,0.,4.8,0.,4.8
1979-03-10 21:12:45.430 ,2,0,0.,4.8,4.,4.8,0.,4.8,0.,4.8
1979-03-10 21:12:50.230 ,2,0,0.,4.8,6.,4.8,0.,4.8,0.,4.8
1979-03-10 21:12:55.030 ,2,0,0.,4.8,3.,4.8,0.,4.8,0.,4.8
1979-03-10 21:12:59.830 ,2,0,0.,4.8,2.,4.8,0.,4.8,0.,4.8
1979-03-10 21:13:04.630 ,2,0,0.,4.8,6.,4.8,0.,4.8,0.,4.8
1979-03-10 21:13:09.430 ,1,0,0.,4.8,3.,4.8,0.,4.8,0.,4.8
1979-03-10 21:13:14.230 ,1,0,0.,4.8,3.,4.8,0.,4.8,1.,4.8
1979-03-10 21:13:19.030 ,1,0,0.,4.8,1.,4.8,1.,4.8,0.,4.8
1979-03-10 21:13:23.830 ,1,0,0.,4.8,2.,4.8,0.,4.8,0.,4.8
1979-03-10 21:13:28.630 ,1,0,0.,4.8,3.,4.8,0.,4.8,0.,4.8
1979-03-10 21:13:33.430 ,0,0,0.,4.8,6.,4.8,2.,4.8,0.,4.8
1979-03-10 21:13:38.230 ,0,0,0.,4.8,6.,4.8,0.,4.8,1.,4.8
1979-03-10 21:13:43.030 ,0,0,0.,4.8,1.,4.8,0.,4.8,0.,4.8
1979-03-10 21:13:47.830 ,0,0,0.,4.8,1.,4.8,0.,4.8,0.,4.8
1979-03-10 21:13:52.630 ,0,0,0.,4.8,5.,4.8,1.,4.8,1.,4.8
1979-03-10 21:13:57.430 ,0,0,0.,4.8,5.,4.8,0.,4.8,0.,4.8
1979-03-10 21:14:02.230 ,0,0,0.,4.8,7.,4.8,0.,4.8,0.,4.8
1979-03-10 21:14:07.030 ,0,0,0.,4.8,5.,4.8,0.,4.8,1.,4.8
1979-03-10 21:14:11.830 ,0,0,0.,4.8,4.,4.8,0.,4.8,0.,4.8
1979-03-10 21:14:16.630 ,0,0,0.,4.8,2.,4.8,0.,4.8,1.,4.8
1979-03-10 21:14:21.430 ,1,0,0.,4.8,2.,4.8,0.,4.8,0.,4.8
1979-03-10 21:14:26.230 ,1,0,0.,4.8,2.,4.8,0.,4.8,0.,4.8
1979-03-10 21:14:31.030 ,1,0,0.,4.8,2.,4.8,1.,4.8,0.,4.8
1979-03-10 21:14:35.830 ,1,0,0.,4.8,4.,4.8,0.,4.8,0.,4.8
1979-03-10 21:14:40.630 ,1,0,0.,4.8,3.,4.8,0.,4.8,0.,4.8
1979-03-10 21:14:45.430 ,2,0,0.,4.8,3.,4.8,0.,4.8,0.,4.8
1979-03-10 21:14:50.230 ,2,0,0.,4.8,3.,4.8,0.,4.8,1.,4.8
1979-03-10 21:14:55.030 ,2,0,0.,4.8,3.,4.8,0.,4.8,0.,4.8
1979-03-10 21:14:59.830 ,2,0,0.,4.8,3.,4.8,0.,4.8,0.,4.8
1979-03-10 21:15:04.630 ,2,0,0.,4.8,2.,4.8,2.,4.8,0.,4.8
1979-03-10 21:15:09.430 ,3,0,0.,4.8,8.,4.8,0.,4.8,0.,4.8
1979-03-10 21:15:14.230 ,3,0,0.,4.8,3.,4.8,0.,4.8,1.,4.8
1979-03-10 21:15:19.030 ,3,0,0.,4.8,3.,4.8,0.,4.8,0.,4.8
1979-03-10 21:15:23.830 ,3,0,0.,4.8,4.,4.8,1.,4.8,0.,4.8
1979-03-10 21:15:28.630 ,3,0,0.,4.8,2.,4.8,0.,4.8,0.,4.8
1979-03-10 21:15:33.430 ,4,0,0.,4.8,2.,4.8,0.,4.8,0.,4.8
1979-03-10 21:15:38.230 ,4,0,0.,4.8,5.,4.8,0.,4.8,0.,4.8
1979-03-10 21:15:43.030 ,4,0,0.,4.8,5.,4.8,2.,4.8,0.,4.8
1979-03-10 21:15:47.830 ,4,0,0.,4.8,1.,4.8,1.,4.8,0.,4.8
1979-03-10 21:15:52.630 ,4,0,0.,4.8,6.,4.8,0.,4.8,0.,4.8
1979-03-10 21:15:57.430 ,5,0,0.,4.8,5.,4.8,1.,4.8,0.,4.8
1979-03-10 21:16:02.230 ,5,0,,0,,0,,0,,0
1979-03-10 21:16:07.030 ,5,0,0.,4.8,5.,4.8,0.,4.8,0.,4.8
1979-03-10 21:16:11.830 ,5,0,0.,4.8,4.,4.8,0.,4.8,0.,4.8
1979-03-10 21:16:16.630 ,5,0,0.,4.8,3.,4.8,0.,4.8,0.,4.8
1979-03-10 21:16:21.430 ,6,0,0.,4.8,4.,4.8,0.,4.8,1.,4.8
1979-03-10 21:16:26.230 ,6,0,0.,4.8,5.,4.8,0.,4.8,1.,4.8
1979-03-10 21:16:31.030 ,6,0,0.,4.8,1.,4.8,0.,4.8,0.,4.8
1979-03-10 21:16:35.830 ,6,0,0.,4.8,2.,4.8,1.,4.8,0.,4.8
1979-03-10 21:16:40.630 ,6,0,0.,4.8,3.,4.8,0.,4.8,0.,4.8
1979-03-10 21:16:45.430 ,7,0,0.,4.8,1.,4.8,0.,4.8,0.,4.8
1979-03-10 21:16:50.230 ,7,0,0.,4.8,2.,4.8,0.,4.8,0.,4.8
1979-03-10 21:16:55.030 ,7,0,0.,4.8,0.,4.8,0.,4.8,0.,4.8
1979-03-10 21:16:59.830 ,7,0,0.,4.8,1.,4.8,0.,4.8,1.,4.8
1979-03-10 21:17:04.630 ,7,0,0.,4.8,0.,4.8,0.,4.8,0.,4.8
1979-03-10 21:17:09.430 ,7,0,0.,4.8,0.,4.8,0.,4.8,0.,4.8
1979-03-10 21:17:14.230 ,7,0,0.,4.8,0.,4.8,0.,4.8,0.,4.8
1979-03-10 21:17:19.030 ,7,0,0.,4.8,0.,4.8,2.,4.8,0.,4.8
1979-03-10 21:17:23.830 ,7,0,0.,4.8,0.,4.8,1.,4.8,0.,4.8
1979-03-10 21:17:28.630 ,7,0,0.,4.8,1.,4.8,1.,4.8,0.,4.8
1979-03-10 21:17:33.430 ,6,0,0.,4.8,1.,4.8,1.,4.8,0.,4.8
1979-03-10 21:17:38.230 ,6,0,0.,4.8,0.,4.8,1.,4.8,0.,4.8
1979-03-10 21:17:43.030 ,6,0,0.,4.8,1.,4.8,1.,4.8,0.,4.8
1979-03-10 21:17:47.830 ,6,0,0.,4.8,2.,4.8,0.,4.8,0.,4.8
1979-03-10 21:17:52.630 ,6,0,0.,4.8,0.,4.8,1.,4.8,0.,4.8
1979-03-10 21:17:57.430 ,5,0,0.,4.8,2.,4.8,0.,4.8,0.,4.8
1979-03-10 21:18:02.230 ,5,0,0.,4.8,0.,4.8,0.,4.8,0.,4.8
1979-03-10 21:18:07.030 ,5,0,0.,4.8,1.,4.8,1.,4.8,1.,4.8
1979-03-10 21:18:11.830 ,5,0,0.,4.8,4.,4.8,0.,4.8,0.,4.8
1979-03-10 21:18:16.630 ,5,0,0.,4.8,0.,4.8,2.,4.8,1.,4.8
1979-03-10 21:18:21.430 ,4,0,0.,4.8,5.,4.8,0.,4.8,0.,4.8
1979-03-10 21:18:26.230 ,4,0,0.,4.8,0.,4.8,1.,4.8,0.,4.8
1979-03-10 21:18:31.030 ,4,0,0.,4.8,1.,4.8,0.,4.8,0.,4.8
1979-03-10 21:18:35.830 ,4,0,0.,4.8,2.,4.8,1.,4.8,0.,4.8
1979-03-10 21:18:40.630 ,4,0,0.,4.8,2.,4.8,0.,4.8,0.,4.8
1979-03-10 21:18:45.430 ,3,0,0.,4.8,2.,4.8,0.,4.8,0.,4.8
1979-03-10 21:18:50.230 ,3,0,0.,4.8,0.,4.8,0.,4.8,0.,4.8
1979-03-10 21:18:55.030 ,3,0,0.,4.8,1.,4.8,1.,4.8,1.,4.8
1979-03-10 21:18:59.830 ,3,0,0.,4.8,0.,4.8,0.,4.8,0.,4.8
1979-03-10 21:19:04.630 ,3,0,0.,4.8,1.,4.8,0.,4.8,0.,4.8
1979-03-10 21:19:09.430 ,2,0,0.,4.8,0.,4.8,0.,4.8,0.,4.8
1979-03-10 21:19:14.230 ,2,0,0.,4.8,1.,4.8,0.,4.8,0.,4.8
1979-03-10 21:19:19.030 ,2,0,0.,4.8,0.,4.8,0.,4.8,0.,4.8
1979-03-10 21:19:23.830 ,2,0,0.,4.8,1.,4.8,0.,4.8,0.,4.8
1979-03-10 21:19:28.630 ,2,0,0.,4.8,0.,4.8,0.,4.8,0.,4.8
1979-03-10 21:19:33.430 ,1,0,0.,4.8,0.,4.8,0.,4.8,0.,4.8
1979-03-10 21:19:38.230 ,1,0,0.,4.8,0.,4.8,0.,4.8,0.,4.8
1979-03-10 21:19:43.030 ,1,0,0.,4.8,0.,4.8,0.,4.8,0.,4.8
1979-03-10 21:19:47.830 ,1,0,0.,4.8,0.,4.8,0.,4.8,0.,4.8
1979-03-10 21:19:52.630 ,1,0,0.,4.8,0.,4.8,1.,4.8,0.,4.8
1979-03-10 21:19:57.430 ,0,0,0.,4.8,0.,4.8,1.,4.8,0.,4.8
1979-03-10 21:20:02.230 ,0,0,0.,4.8,1.,4.8,0.,4.8,0.,4.8
1979-03-10 21:20:07.030 ,0,0,0.,4.8,0.,4.8,0.,4.8,0.,4.8
1979-03-10 21:20:11.830 ,0,0,0.,4.8,1.,4.8,0.,4.8,0.,4.8
1979-03-10 21:20:16.630 ,0,0,0.,4.8,0.,4.8,0.,4.8,0.,4.8
1979-03-10 21:20:21.430 ,0,0,0.,4.8,2.,4.8,0.,4.8,0.,4.8
1979-03-10 21:20:26.230 ,0,0,0.,4.8,1.,4.8,0.,4.8,1.,4.8
1979-03-10 21:20:31.030 ,0,0,0.,4.8,1.,4.8,0.,4.8,0.,4.8
1979-03-10 21:20:35.830 ,0,0,0.,4.8,2.,4.8,1.,4.8,0.,4.8
1979-03-10 21:20:40.630 ,0,0,0.,4.8,0.,4.8,1.,4.8,0.,4.8
1979-03-10 21:20:45.430 ,1,0,0.,4.8,0.,4.8,0.,4.8,0.,4.8
1979-03-10 21:20:50.230 ,1,0,0.,4.8,2.,4.8,0.,4.8,0.,4.8
1979-03-10 21:20:55.030 ,1,0,0.,4.8,1.,4.8,0.,4.8,0.,4.8
1979-03-10 21:20:59.830 ,1,0,0.,4.8,0.,4.8,0.,4.8,0.,4.8
1979-03-10 21:21:04.630 ,1,0,0.,4.8,0.,4.8,0.,4.8,0.,4.8
1979-03-10 21:21:09.430 ,2,0,0.,4.8,1.,4.8,0.,4.8,0.,4.8
1979-03-10 21:21:14.230 ,2,0,,0,,0,,0,,0
1979-03-10 21:21:19.030 ,2,0,0.,4.8,2.,4.8,1.,4.8,0.,4.8
1979-03-10 21:21:23.830 ,2,0,0.,4.8,0.,4.8,0.,4.8,0.,4.8
1979-03-10 21:21:28.630 ,2,0,0.,4.8,0.,4.8,0.,4.8,0.,4.8
1979-03-10 21:21:33.430 ,3,0,0.,4.8,2.,4.8,0.,4.8,0.,4.8
1979-03-10 21:21:38.230 ,3,0,0.,4.8,1.,4.8,0.,4.8,0.,4.8
1979-03-10 21:21:43.030 ,3,0,0.,4.8,0.,4.8,0.,4.8,0.,4.8
1979-03-10 21:21:47.830 ,3,0,0.,4.8,0.,4.8,0.,4.8,1.,4.8
1979-03-10 21:21:52.630 ,3,0,0.,4.8,0.,4.8,0.,4.8,0.,4.8
1979-03-10 21:21:57.430 ,4,0,0.,4.8,0.,4.8,0.,4.8,0.,4.8
1979-03-10 21:22:02.230 ,4,0,0.,4.8,0.,4.8,0.,4.8,0.,4.8
1979-03-10 21:22:07.030 ,4,0,0.,4.8,1.,4.8,0.,4.8,2.,4.8
1979-03-10 21:22:11.830 ,4,0,0.,4.8,0.,4.8,0.,4.8,0.,4.8
1979-03-10 21:22:16.630 ,4,0,0.,4.8,1.,4.8,0.,4.8,0.,4.8
1979-03-10 21:22:21.430 ,5,0,0.,4.8,1.,4.8,0.,4.8,0.,4.8
1979-03-10 21:22:26.230 ,5,0,0.,4.8,0.,4.8,0.,4.8,0.,4.8
1979-03-10 21:22:31.030 ,5,0,0.,4.8,1.,4.8,1.,4.8,0.,4.8
1979-03-10 21:22:35.830 ,5,0,0.,4.8,1.,4.8,0.,4.8,0.,4.8
1979-03-10 21:22:40.630 ,5,0,0.,4.8,1.,4.8,0.,4.8,0.,4.8
1979-03-10 21:22:45.430 ,6,0,0.,4.8,1.,4.8,0.,4.8,0.,4.8
1979-03-10 21:22:50.230 ,6,0,0.,4.8,1.,4.8,0.,4.8,0.,4.8
1979-03-10 21:22:55.030 ,6,0,0.,4.8,0.,4.8,0.,4.8,0.,4.8
1979-03-10 21:22:59.830 ,6,0,0.,4.8,0.,4.8,0.,4.8,0.,4.8
1979-03-10 21:23:04.630 ,6,0,0.,4.8,0.,4.8,0.,4.8,0.,4.8
1979-03-10 21:23:09.430 ,7,0,0.,4.8,0.,4.8,0.,4.8,0.,4.8
1979-03-10 21:23:14.230 ,7,0,0.,4.8,0.,4.8,0.,4.8,0.,4.8
1979-03-10 21:23:19.030 ,7,0,0.,4.8,1.,4.8,1.,4.8,0.,4.8
1979-03-10 21:23:23.830 ,7,0,0.,4.8,1.,4.8,0.,4.8,0.,4.8
1979-03-10 21:23:28.630 ,7,0,0.,4.8,0.,4.8,0.,4.8,0.,4.8
1979-03-10 21:23:33.430 ,7,0,0.,4.8,0.,4.8,0.,4.8,0.,4.8
1979-03-10 21:23:38.230 ,7,0,0.,4.8,1.,4.8,1.,4.8,0.,4.8
1979-03-10 21:23:43.030 ,7,0,0.,4.8,0.,4.8,0.,4.8,0.,4.8
1979-03-10 21:23:47.830 ,7,0,0.,4.8,2.,4.8,0.,4.8,0.,4.8
1979-03-10 21:23:52.630 ,7,0,0.,4.8,2.,4.8,1.,4.8,1.,4.8
1979-03-10 21:23:57.430 ,6,0,0.,4.8,0.,4.8,0.,4.8,0.,4.8
1979-03-10 21:24:02.230 ,6,0,0.,4.8,0.,4.8,1.,4.8,0.,4.8
1979-03-10 21:24:07.030 ,6,0,0.,4.8,1.,4.8,0.,4.8,0.,4.8
1979-03-10 21:24:11.830 ,6,0,0.,4.8,1.,4.8,0.,4.8,0.,4.8
1979-03-10 21:24:16.630 ,6,0,0.,4.8,0.,4.8,0.,4.8,0.,4.8
1979-03-10 21:24:21.430 ,5,0,0.,4.8,2.,4.8,0.,4.8,0.,4.8
1979-03-10 21:24:26.230 ,5,0,0.,4.8,1.,4.8,0.,4.8,0.,4.8
1979-03-10 21:24:31.030 ,5,0,0.,4.8,2.,4.8,0.,4.8,0.,4.8
1979-03-10 21:24:35.830 ,5,0,0.,4.8,0.,4.8,0.,4.8,0.,4.8
1979-03-10 21:24:40.630 ,5,0,0.,4.8,0.,4.8,0.,4.8,0.,4.8
1979-03-10 21:24:45.430 ,4,0,0.,4.8,1.,4.8,0.,4.8,0.,4.8
1979-03-10 21:24:50.230 ,4,0,0.,4.8,1.,4.8,0.,4.8,0.,4.8
1979-03-10 21:24:55.030 ,4,0,0.,4.8,2.,4.8,0.,4.8,0.,4.8
1979-03-10 21:24:59.830 ,4,0,0.,4.8,1.,4.8,0.,4.8,0.,4.8
1979-03-10 21:25:04.630 ,4,0,0.,4.8,0.,4.8,0.,4.8,1.,4.8
1979-03-10 21:25:09.430 ,3,0,0.,4.8,0.,4.8,0.,4.8,0.,4.8
1979-03-10 21:25:14.230 ,3,0,0.,4.8,0.,4.8,0.,4.8,0.,4.8
1979-03-10 21:25:19.030 ,3,0,0.,4.8,1.,4.8,1.,4.8,0.,4.8
1979-03-10 21:25:23.830 ,3,0,0.,4.8,1.,4.8,0.,4.8,0.,4.8
1979-03-10 21:25:28.630 ,3,0,0.,4.8,1.,4.8,0.,4.8,0.,4.8
1979-03-10 21:25:33.430 ,2,0,0.,4.8,0.,4.8,0.,4.8,0.,4.8
1979-03-10 21:25:38.230 ,2,0,0.,4.8,0.,4.8,0.,4.8,0.,4.8
1979-03-10 21:25:43.030 ,2,0,0.,4.8,2.,4.8,0.,4.8,0.,4.8
1979-03-10 21:25:47.830 ,2,0,0.,4.8,0.,4.8,0.,4.8,0.,4.8
1979-03-10 21:25:52.630 ,2,0,0.,4.8,0.,4.8,0.,4.8,0.,4.8
1979-03-10 21:25:57.430 ,1,0,0.,4.8,2.,4.8,0.,4.8,0.,4.8
1979-03-10 21:26:02.230 ,1,0,0.,4.8,1.,4.8,0.,4.8,0.,4.8
1979-03-10 21:26:07.030 ,1,0,0.,4.8,1.,4.8,0.,4.8,0.,4.8
1979-03-10 21:26:11.830 ,1,0,0.,4.8,0.,4.8,0.,4.8,0.,4.8
1979-03-10 21:26:16.630 ,1,0,0.,4.8,0.,4.8,0.,4.8,0.,4.8
1979-03-10 21:26:21.430 ,0,0,0.,4.8,0.,4.8,0.,4.8,0.,4.8
1979-03-10 21:26:26.230 ,0,0,0.,4.8,0.,4.8,0.,4.8,0.,4.8
1979-03-10 21:26:31.030 ,0,0,0.,4.8,1.,4.8,0.,4.8,0.,4.8
1979-03-10 21:26:35.830 ,0,0,0.,4.8,0.,4.8,0.,4.8,1.,4.8
1979-03-10 21:26:40.630 ,0,0,0.,4.8,0.,4.8,0.,4.8,0.,4.8
1979-03-10 21:26:45.430 ,0,0,0.,4.8,0.,4.8,0.,4.8,0.,4.8
1979-03-10 21:26:50.230 ,0,0,0.,4.8,0.,4.8,0.,4.8,0.,4.8
1979-03-10 21:26:55.030 ,0,0,0.,4.8,1.,4.8,0.,4.8,0.,4.8
1979-03-10 21:26:59.830 ,0,0,0.,4.8,1.,4.8,0.,4.8,0.,4.8
1979-03-10 21:27:04.630 ,0,0,0.,4.8,1.,4.8,0.,4.8,0.,4.8
1979-03-10 21:27:09.430 ,1,0,0.,4.8,1.,4.8,0.,4.8,0.,4.8
1979-03-10 21:27:14.230 ,1,0,0.,4.8,0.,4.8,0.,4.8,0.,4.8
1979-03-10 21:27:19.030 ,1,0,0.,4.8,1.,4.8,0.,4.8,0.,4.8
1979-03-10 21:27:23.830 ,1,0,0.,4.8,1.,4.8,0.,4.8,0.,4.8
1979-03-10 21:27:28.630 ,1,0,0.,4.8,1.,4.8,0.,4.8,1.,4.8
1979-03-10 21:27:33.430 ,2,0,0.,4.8,1.,4.8,0.,4.8,0.,4.8
1979-03-10 21:27:38.230 ,2,0,0.,4.8,1.,4.8,0.,4.8,0.,4.8
1979-03-10 21:27:43.030 ,2,0,0.,4.8,0.,4.8,0.,4.8,0.,4.8
1979-03-10 21:27:47.830 ,2,0,0.,4.8,0.,4.8,0.,4.8,0.,4.8
1979-03-10 21:27:52.630 ,2,0,0.,4.8,3.,4.8,0.,4.8,0.,4.8
1979-03-10 21:27:57.430 ,3,0,0.,4.8,0.,4.8,0.,4.8,1.,4.8
1979-03-10 21:28:02.230 ,3,0,0.,4.8,2.,4.8,0.,4.8,0.,4.8
1979-03-10 21:28:07.030 ,3,0,0.,4.8,0.,4.8,0.,4.8,0.,4.8
1979-03-10 21:28:11.830 ,3,0,0.,4.8,0.,4.8,0.,4.8,0.,4.8
1979-03-10 21:28:16.630 ,3,0,0.,4.8,0.,4.8,0.,4.8,0.,4.8
1979-03-10 21:28:21.430 ,4,0,0.,4.8,0.,4.8,1.,4.8,0.,4.8
1979-03-10 21:28:26.230 ,4,0,0.,4.8,2.,4.8,0.,4.8,0.,4.8
1979-03-10 21:28:31.030 ,4,0,0.,4.8,1.,4.8,0.,4.8,0.,4.8
1979-03-10 21:28:35.830 ,4,0,0.,4.8,2.,4.8,0.,4.8,0.,4.8
1979-03-10 21:28:40.630 ,4,0,0.,4.8,1.,4.8,0.,4.8,0.,4.8
1979-03-10 21:28:45.430 ,5,0,0.,4.8,0.,4.8,0.,4.8,0.,4.8
1979-03-10 21:28:50.230 ,5,0,0.,4.8,1.,4.8,0.,4.8,0.,4.8
1979-03-10 21:28:55.030 ,5,0,0.,4.8,0.,4.8,0.,4.8,0.,4.8
1979-03-10 21:28:59.830 ,5,0,0.,4.8,2.,4.8,0.,4.8,0.,4.8
1979-03-10 21:29:04.630 ,5,0,0.,4.8,0.,4.8,0.,4.8,0.,4.8
1979-03-10 21:29:09.430 ,6,0,0.,4.8,0.,4.8,0.,4.8,0.,4.8
1979-03-10 21:29:14.230 ,6,0,0.,4.8,2.,4.8,0.,4.8,0.,4.8
1979-03-10 21:29:19.030 ,6,0,0.,4.8,0.,4.8,1.,4.8,0.,4.8
1979-03-10 21:29:23.830 ,6,0,0.,4.8,1.,4.8,0.,4.8,0.,4.8
1979-03-10 21:29:28.630 ,6,0,0.,4.8,0.,4.8,1.,4.8,0.,4.8
1979-03-10 21:29:33.430 ,7,0,0.,4.8,1.,4.8,0.,4.8,0.,4.8
1979-03-10 21:29:38.230 ,7,0,0.,4.8,1.,4.8,0.,4.8,0.,4.8
1979-03-10 21:29:43.030 ,7,0,0.,4.8,0.,4.8,0.,4.8,0.,4.8
1979-03-10 21:29:47.830 ,7,0,0.,4.8,1.,4.8,0.,4.8,0.,4.8
1979-03-10 21:29:52.630 ,7,0,0.,4.8,0.,4.8,1.,4.8,0.,4.8
1979-03-10 21:29:57.430 ,7,0,0.,4.8,0.,4.8,0.,4.8,0.,4.8
1979-03-10 21:30:02.230 ,7,0,0.,4.8,2.,4.8,0.,4.8,0.,4.8
1979-03-10 21:30:07.030 ,7,0,0.,4.8,1.,4.8,0.,4.8,0.,4.8
1979-03-10 21:30:11.830 ,7,0,0.,4.8,0.,4.8,0.,4.8,0.,4.8
1979-03-10 21:30:16.630 ,7,0,0.,4.8,0.,4.8,0.,4.8,0.,4.8
1979-03-10 21:30:21.430 ,6,0,0.,4.8,1.,4.8,0.,4.8,0.,4.8
1979-03-10 21:30:26.230 ,6,0,0.,4.8,1.,4.8,0.,4.8,0.,4.8
1979-03-10 21:30:31.030 ,6,0,0.,4.8,1.,4.8,0.,4.8,0.,4.8
1979-03-10 21:30:35.830 ,6,0,0.,4.8,0.,4.8,0.,4.8,0.,4.8
1979-03-10 21:30:40.630 ,6,0,0.,4.8,0.,4.8,0.,4.8,0.,4.8
1979-03-10 21:30:45.430 ,5,0,0.,4.8,0.,4.8,0.,4.8,0.,4.8
1979-03-10 21:30:50.230 ,5,0,0.,4.8,0.,4.8,0.,4.8,1.,4.8
1979-03-10 21:30:55.030 ,5,0,0.,4.8,0.,4.8,0.,4.8,0.,4.8
1979-03-10 21:30:59.830 ,5,0,0.,4.8,1.,4.8,0.,4.8,0.,4.8
1979-03-10 21:31:04.630 ,5,0,0.,4.8,0.,4.8,0.,4.8,0.,4.8
1979-03-10 21:31:09.430 ,4,0,0.,4.8,0.,4.8,0.,4.8,0.,4.8
1979-03-10 21:31:14.230 ,4,0,0.,4.8,0.,4.8,0.,4.8,0.,4.8
1979-03-10 21:31:19.030 ,4,0,0.,4.8,1.,4.8,0.,4.8,0.,4.8
1979-03-10 21:31:23.830 ,4,0,0.,4.8,0.,4.8,0.,4.8,0.,4.8
1979-03-10 21:31:28.630 ,4,0,0.,4.8,3.,4.8,1.,4.8,0.,4.8
1979-03-10 21:31:33.430 ,3,0,0.,4.8,1.,4.8,0.,4.8,0.,4.8
1979-03-10 21:31:38.230 ,3,0,0.,4.8,0.,4.8,0.,4.8,0.,4.8
1979-03-10 21:31:43.030 ,3,0,0.,4.8,2.,4.8,0.,4.8,0.,4.8
1979-03-10 21:31:47.830 ,3,0,0.,4.8,1.,4.8,0.,4.8,0.,4.8
1979-03-10 21:31:52.630 ,3,0,0.,4.8,0.,4.8,0.,4.8,0.,4.8
1979-03-10 21:31:57.430 ,2,0,0.,4.8,0.,4.8,0.,4.8,0.,4.8
1979-03-10 21:32:02.230 ,2,0,0.,4.8,0.,4.8,0.,4.8,0.,4.8
1979-03-10 21:32:07.030 ,2,0,0.,4.8,1.,4.8,0.,4.8,0.,4.8
1979-03-10 21:32:11.830 ,2,0,0.,4.8,2.,4.8,0.,4.8,0.,4.8
1979-03-10 21:32:16.630 ,2,0,0.,4.8,0.,4.8,0.,4.8,0.,4.8
1979-03-10 21:32:21.430 ,1,0,0.,4.8,0.,4.8,0.,4.8,0.,4.8
1979-03-10 21:32:26.230 ,1,0,0.,4.8,1.,4.8,0.,4.8,0.,4.8
1979-03-10 21:32:31.030 ,1,0,0.,4.8,0.,4.8,0.,4.8,1.,4.8
1979-03-10 21:32:35.830 ,1,0,0.,4.8,0.,4.8,0.,4.8,0.,4.8
1979-03-10 21:32:40.630 ,1,0,0.,4.8,1.,4.8,0.,4.8,0.,4.8
1979-03-10 21:32:45.430 ,0,0,0.,4.8,0.,4.8,0.,4.8,0.,4.8
1979-03-10 21:32:50.230 ,0,0,0.,4.8,0.,4.8,0.,4.8,0.,4.8
1979-03-10 21:32:55.030 ,0,0,0.,4.8,1.,4.8,1.,4.8,0.,4.8
1979-03-10 21:32:59.830 ,0,0,0.,4.8,0.,4.8,0.,4.8,0.,4.8
1979-03-10 21:33:04.630 ,0,0,0.,4.8,0.,4.8,0.,4.8,0.,4.8
1979-03-10 21:33:09.430 ,0,0,0.,4.8,1.,4.8,0.,4.8,0.,4.8
1979-03-10 21:33:14.230 ,0,0,0.,4.8,0.,4.8,0.,4.8,0.,4.8
1979-03-10 21:33:19.030 ,0,0,0.,4.8,0.,4.8,0.,4.8,0.,4.8